Home > Weather > Gurgaon > Past weeks

Flag for India Past Weather in Gurgaon, Haryana, India — Yesterday and Last 2 Weeks

Now
86 °F

Fog.


Feels Like: 99 °F
Forecast: 78 / 86 °F
Wind: 9 mph from Southeast

Location: New Delhi Palam Airport

Current Time: Jul 27, 2016 at 11:15:28 AM

Latest Report: Jul 27, 2016 at 10:30 AM


Visibility: 2 mi

Pressure: 29.74 "Hg

Humidity: 79%

Dew Point: 79 °F

Location of GurgaonLocation

Past Weather in Gurgaon — Graph

°F

Gurgaon Temperature Yesterday

Maximum temperature yesterday: 93 °F (at 11:30 AM)
Minimum temperature yesterday: 82 °F (at 9:00 PM)
Average temperature yesterday: 86 °F

High & Low Weather Summary for the Past Weeks

 TemperatureHumidityPressure
High100 °F (Jul 21, 4:00 PM)100% (Jul 16, 6:30 AM)29.74 "Hg (Jul 16, 6:30 AM)
Low77 °F (Jul 16, 6:30 AM)47% (Jul 21, 4:30 PM)29.45 "Hg (Jul 14, 4:00 PM)
Average87 °F78%29.57 "Hg
* Reported Jul 12 9:30 AM — Jul 27 10:00 AM, Gurgaon, Weather by CustomWeather, © 2016

Note: Actual official high and low records may vary slightly from our data, if they occured in-between our weather recording intervals... More about our weather records

Advertising

Gurgaon Weather History for the Previous 24 Hours

Scroll right to see more
 ConditionsComfort  
Time TempWeatherWind HumidityBarometerVisibility
10:00 AM
Wed, Jul 27
84 °FFog.9 mph84%29.74 "Hg2 mi
9:30 AM84 °FFog.9 mph84%29.74 "Hg2 mi
9:00 AM84 °FFog.9 mph84%29.74 "Hg2 mi
8:30 AM82 °FFog.9 mph89%29.71 "Hg1 mi
8:00 AM82 °FFog.9 mph89%29.71 "Hg1 mi
7:30 AM82 °FFog.9 mph89%29.71 "Hg1 mi
7:00 AM82 °FFog.9 mph89%29.71 "Hg1 mi
6:30 AM81 °FFog.9 mph89%29.68 "Hg1 mi
6:00 AM81 °FFog.9 mph89%29.68 "Hg1 mi
5:30 AM81 °FFog.9 mph89%29.68 "Hg1 mi
5:00 AM81 °FFog.8 mph89%29.68 "Hg1 mi
4:30 AM81 °FFog.9 mph89%29.65 "Hg1 mi
4:00 AM81 °FFog.9 mph89%29.68 "Hg1 mi
3:30 AM81 °FFog.9 mph89%29.68 "Hg1 mi
3:00 AM81 °FFog.9 mph89%29.68 "Hg1 mi
2:30 AM81 °FFog.8 mph89%29.68 "Hg1 mi
2:00 AM82 °FFog.9 mph84%29.68 "Hg1 mi
1:30 AM82 °FFog.10 mph84%29.68 "Hg2 mi
1:00 AM82 °FFog.12 mph84%29.68 "Hg2 mi
12:30 AM82 °FFog.12 mph84%29.68 "Hg2 mi
12:00 AM82 °FFog.10 mph84%29.68 "Hg2 mi
11:30 PM
Tue, Jul 26
82 °FFog.8 mph84%29.71 "Hg2 mi
11:00 PM82 °FFog.8 mph84%29.71 "Hg2 mi
10:30 PM82 °FFog.8 mph84%29.68 "Hg2 mi
10:00 PM82 °FFog.8 mph84%29.68 "Hg2 mi
9:30 PM82 °FFog.7 mph84%29.68 "Hg2 mi
9:00 PM82 °FFog.8 mph84%29.68 "Hg2 mi
8:30 PM84 °FFog.9 mph79%29.65 "Hg1 mi
8:00 PM84 °FFog.10 mph79%29.65 "Hg1 mi
7:30 PM84 °FFog.9 mph84%29.62 "Hg1 mi
7:00 PM84 °FFog.9 mph79%29.62 "Hg1 mi
6:30 PM84 °FFog.8 mph79%29.62 "Hg1 mi
6:00 PM84 °FFog.8 mph79%29.62 "Hg1 mi
5:30 PM84 °FFog.8 mph84%29.62 "Hg1 mi
5:00 PM84 °FFog.8 mph84%29.62 "Hg2 mi
4:30 PM84 °FFog.8 mph79%29.62 "Hg2 mi
4:00 PM84 °FFog.9 mph79%29.62 "Hg2 mi
3:30 PM86 °FFog.9 mph84%29.62 "Hg2 mi
3:00 PM86 °FBroken clouds.8 mph70%29.62 "Hg1 mi
2:30 PM88 °FThunderstorms. Broken clouds.9 mph70%29.62 "Hg1 mi
2:00 PM88 °FThunderstorms. Broken clouds.7 mph70%29.62 "Hg1 mi
1:30 PM90 °FThunderstorms. Broken clouds.12 mph67%29.65 "Hg1 mi
1:00 PM93 °FThunderstorms. Broken clouds.7 mph59%29.65 "Hg1 mi
12:30 PM93 °FScattered clouds.7 mph59%29.65 "Hg2 mi
12:00 PM93 °FScattered clouds.7 mph59%29.68 "Hg2 mi
11:30 AM93 °FScattered clouds.5 mph59%29.68 "Hg2 mi
11:00 AM91 °FScattered clouds.7 mph63%29.68 "Hg2 mi
Weather by CustomWeather, © 2016

See weather overviewHow to use our weather pages